Regional Weather Roundup
Issued by NWS

Home | Current Version | Previous Version | Text Only | Print | Product List | Glossary On
Versions: 1 2 3 4 5 6 7 8 9 10 11 12 13 14 15 16 17 18 19 20 21 22 23 24 25 26 27 28 29 30 31 32 33 34 35 36 37 38 39 40 41 42 43 44 45 46 47 48 49 50
000
ASUS43 KBIS 021720
RWRND

NORTH DAKOTA REGIONAL WEATHER ROUNDUP
NATIONAL WEATHER SERVICE BISMARCK ND
1200 PM CDT TUE SEP 02 2014

NOTE: "FAIR" INDICATES FEW OR NO CLOUDS BELOW 12,000 FEET WITH NO
SIGNIFICANT WEATHER AND/OR OBSTRUCTIONS TO VISIBILITY.


NDZ001>003-009>011-017-021800-
NORTHWEST NORTH DAKOTA

CITY           SKY/WX    TMP DP  RH WIND       PRES   REMARKS
WILLISTON      MOSUNNY   70  45  40 W16G23    29.77F
MINOT          SUNNY     72  49  44 SW14      29.72S
MINOT AFB      SUNNY     71  53  52 W13       29.71F
$$

NDZ018>021-031>035-040>046-021800-
SOUTHWEST NORTH DAKOTA

CITY           SKY/WX    TMP DP  RH WIND       PRES   REMARKS
BISMARCK       SUNNY     73  52  47 SW10      29.80F
DICKINSON      SUNNY     70  47  43 W10       29.83S
GARRISON         N/A     72  52  49 W13       29.76F
HETTINGER ARPT MOSUNNY   71  50  47 W18       29.87F
$$

NDZ004>008-012>016-024-026-027-054-021800-
NORTHEAST NORTH DAKOTA

CITY           SKY/WX    TMP DP  RH WIND       PRES   REMARKS
GRAND FORKS    LGT RAIN  65  55  70 S9        29.74F
GRND FRKS AFB  PTSUNNY   64  59  83 S10       29.75F
DEVILS LAKE    MOSUNNY   68  54  60 S13       29.73F
$$

NDZ022-023-025-028>030-036>039-047>053-021800-
SOUTHEAST NORTH DAKOTA

CITY           SKY/WX    TMP DP  RH WIND       PRES   REMARKS
FARGO          MOSUNNY   73  55  53 W10       29.81S
JAMESTOWN      MOSUNNY   70  53  54 CALM      29.81S
$$




USA.gov is the U.S. government's official web portal to all federal, state and local government web resources and services.